Time,TemperatureF,DewpointF,PressureIn,WindDirection,WindDirectionDegrees,WindSpeedMPH,WindSpeedGustMPH,Humidity,HourlyPrecipIn,Conditions,Clouds,dailyrainin,SoftwareType,DateUTC
2013-04-12 00:00:00,58.8,56.4,28.61,West,260,3.3,9.6,92,0.00,,,0.08,WUHU216WMR100,2013-04-12 04:00:00,
2013-04-12 00:05:00,58.8,56.7,28.64,WNW,292,4.9,6.5,93,0.00,,,0.00,WUHU216WMR100,2013-04-12 04:05:00,
2013-04-12 00:10:00,58.8,56.7,28.64,WNW,302,2.2,6.5,93,0.04,,,0.05,WUHU216WMR100,2013-04-12 04:10:00,
2013-04-12 00:15:00,58.6,56.5,28.64,WNW,292,2.3,6.0,93,0.04,,,0.05,WUHU216WMR100,2013-04-12 04:15:00,
2013-04-12 00:20:00,58.5,56.4,28.61,North,0,1.6,3.8,93,0.04,,,0.05,WUHU216WMR100,2013-04-12 04:20:00,
2013-04-12 00:25:00,58.3,56.2,28.61,North,0,0.4,2.9,93,0.04,,,0.05,WUHU216WMR100,2013-04-12 04:25:00,
2013-04-12 00:30:00,58.1,56.0,28.61,North,0,0.0,2.9,93,0.04,,,0.05,WUHU216WMR100,2013-04-12 04:30:00,
2013-04-12 00:35:00,57.9,55.8,28.61,North,0,0.0,0.0,93,0.00,,,0.05,WUHU216WMR100,2013-04-12 04:35:00,
2013-04-12 00:40:00,57.9,55.8,28.61,North,0,0.0,0.0,93,0.00,,,0.05,WUHU216WMR100,2013-04-12 04:40:00,
2013-04-12 00:45:00,57.7,55.9,28.61,North,0,0.0,0.0,94,0.00,,,0.05,WUHU216WMR100,2013-04-12 04:45:00,
2013-04-12 00:50:00,57.7,55.9,28.59,North,0,0.0,0.0,94,0.00,,,0.05,WUHU216WMR100,2013-04-12 04:50:00,
2013-04-12 00:55:00,57.6,56.1,28.59,ESE,112,0.0,0.0,95,0.00,,,0.05,WUHU216WMR100,2013-04-12 04:55:00,
2013-04-12 01:01:00,57.4,56.2,28.59,ESE,112,2.7,3.8,96,0.00,,,0.05,WUHU216WMR100,2013-04-12 05:01:00,
2013-04-12 01:06:00,57.4,56.5,28.56,East,90,2.5,4.3,97,0.00,,,0.05,WUHU216WMR100,2013-04-12 05:06:00,
2013-04-12 01:12:00,57.4,56.8,28.56,ESE,110,2.8,4.3,98,0.00,,,0.05,WUHU216WMR100,2013-04-12 05:12:00,
2013-04-12 01:17:00,57.4,56.8,28.56,ESE,112,4.9,6.5,98,0.00,,,0.05,WUHU216WMR100,2013-04-12 05:17:00,
2013-04-12 01:22:00,57.4,56.8,28.53,SE,129,4.9,8.1,98,0.00,,,0.05,WUHU216WMR100,2013-04-12 05:22:00,
2013-04-12 01:27:00,57.4,56.8,28.53,WNW,292,3.1,8.1,98,0.00,,,0.05,WUHU216WMR100,2013-04-12 05:27:00,
2013-04-12 01:32:00,57.4,56.8,28.53,WNW,292,3.1,8.1,98,0.00,,,0.05,WUHU216WMR100,2013-04-12 05:32:00,
2013-04-12 01:37:00,57.4,56.8,28.56,NNE,22,1.8,4.0,98,0.00,,,0.05,WUHU216WMR100,2013-04-12 05:37:00,
2013-04-12 01:42:00,57.4,56.8,28.56,NNE,22,0.0,3.8,98,0.00,,,0.05,WUHU216WMR100,2013-04-12 05:42:00,
2013-04-12 01:47:00,57.2,56.6,28.56,NNE,22,0.0,0.0,98,0.00,,,0.05,WUHU216WMR100,2013-04-12 05:47:00,
2013-04-12 01:52:00,57.2,56.6,28.56,NNE,22,0.0,0.0,98,0.00,,,0.05,WUHU216WMR100,2013-04-12 05:52:00,
2013-04-12 01:57:00,57.2,56.6,28.56,NNE,22,0.0,0.0,98,0.00,,,0.05,WUHU216WMR100,2013-04-12 05:57:00,
2013-04-12 02:02:00,57.2,56.6,28.56,NNE,22,1.6,2.2,98,0.00,,,0.05,WUHU216WMR100,2013-04-12 06:02:00,
2013-04-12 02:07:00,57.0,56.4,28.53,NNE,22,0.9,2.9,98,0.00,,,0.05,WUHU216WMR100,2013-04-12 06:07:00,
2013-04-12 02:12:00,57.0,56.4,28.53,NNE,22,1.7,2.9,98,0.00,,,0.05,WUHU216WMR100,2013-04-12 06:12:00,
2013-04-12 02:17:00,57.0,56.4,28.53,NNE,22,1.6,3.1,98,0.00,,,0.05,WUHU216WMR100,2013-04-12 06:17:00,
2013-04-12 02:22:00,57.0,56.4,28.53,WNW,292,2.7,3.4,98,0.00,,,0.05,WUHU216WMR100,2013-04-12 06:22:00,
2013-04-12 02:27:00,57.0,56.4,28.53,West,270,2.8,4.7,98,0.00,,,0.05,WUHU216WMR100,2013-04-12 06:27:00,
2013-04-12 02:32:00,57.0,56.4,28.53,North,0,2.0,4.7,98,0.00,,,0.05,WUHU216WMR100,2013-04-12 06:32:00,
2013-04-12 02:37:00,56.8,56.2,28.56,North,0,0.0,3.1,98,0.00,,,0.05,WUHU216WMR100,2013-04-12 06:37:00,
2013-04-12 02:42:00,56.8,56.2,28.56,North,0,0.0,0.9,98,0.00,,,0.05,WUHU216WMR100,2013-04-12 06:42:00,
2013-04-12 02:47:00,56.8,56.2,28.56,North,0,0.0,0.0,98,0.00,,,0.05,WUHU216WMR100,2013-04-12 06:47:00,
2013-04-12 02:52:00,56.8,56.2,28.56,North,0,2.0,2.5,98,0.00,,,0.05,WUHU216WMR100,2013-04-12 06:52:00,
2013-04-12 02:57:00,56.8,56.2,28.56,North,0,1.6,2.5,98,0.00,,,0.05,WUHU216WMR100,2013-04-12 06:57:00,
2013-04-12 03:02:00,57.0,56.4,28.53,North,0,2.0,2.7,98,0.00,,,0.05,WUHU216WMR100,2013-04-12 07:02:00,
2013-04-12 03:07:00,57.0,56.4,28.53,East,94,2.5,4.3,98,0.00,,,0.05,WUHU216WMR100,2013-04-12 07:07:00,
2013-04-12 03:12:00,57.0,56.4,28.53,WSW,247,3.1,4.3,98,0.00,,,0.05,WUHU216WMR100,2013-04-12 07:12:00,
2013-04-12 03:17:00,57.0,56.4,28.53,WSW,247,0.0,4.3,98,0.00,,,0.05,WUHU216WMR100,2013-04-12 07:17:00,
2013-04-12 03:22:00,57.0,56.4,28.53,WSW,247,0.0,1.6,98,0.00,,,0.05,WUHU216WMR100,2013-04-12 07:22:00,
2013-04-12 03:27:00,57.2,56.6,28.53,WSW,247,0.0,0.0,98,0.00,,,0.05,WUHU216WMR100,2013-04-12 07:27:00,
2013-04-12 03:32:00,57.2,56.6,28.53,WSW,247,0.0,0.0,98,0.00,,,0.05,WUHU216WMR100,2013-04-12 07:32:00,
2013-04-12 03:37:00,57.2,56.6,28.53,WSW,247,0.0,0.0,98,0.00,,,0.05,WUHU216WMR100,2013-04-12 07:37:00,
2013-04-12 03:42:00,57.4,56.8,28.53,WSW,247,0.0,0.0,98,0.00,,,0.05,WUHU216WMR100,2013-04-12 07:42:00,
2013-04-12 03:47:00,57.6,57.0,28.50,WSW,247,0.0,0.0,98,0.00,,,0.05,WUHU216WMR100,2013-04-12 07:47:00,
2013-04-12 03:52:00,57.6,57.0,28.50,WSW,247,0.0,0.0,98,0.00,,,0.05,WUHU216WMR100,2013-04-12 07:52:00,
2013-04-12 03:57:00,57.7,57.1,28.50,WSW,247,2.5,2.9,98,0.00,,,0.05,WUHU216WMR100,2013-04-12 07:57:00,
2013-04-12 04:02:00,58.1,57.5,28.50,SSE,161,3.7,4.9,98,0.00,,,0.05,WUHU216WMR100,2013-04-12 08:02:00,
2013-04-12 04:07:00,58.5,57.9,28.50,South,183,3.0,5.4,98,0.00,,,0.05,WUHU216WMR100,2013-04-12 08:07:00,
2013-04-12 04:12:00,58.6,58.0,28.50,SSW,208,2.7,5.4,98,0.00,,,0.05,WUHU216WMR100,2013-04-12 08:12:00,
2013-04-12 04:17:00,58.8,58.2,28.53,SSE,157,2.9,4.9,98,0.00,,,0.05,WUHU216WMR100,2013-04-12 08:17:00,
2013-04-12 04:22:00,59.2,58.6,28.53,SSW,202,3.4,4.7,98,0.00,,,0.05,WUHU216WMR100,2013-04-12 08:22:00,
2013-04-12 04:27:00,59.5,58.9,28.53,SSW,202,3.1,6.0,98,0.00,,,0.05,WUHU216WMR100,2013-04-12 08:27:00,
2013-04-12 04:32:00,59.7,59.1,28.53,SSE,165,2.8,6.0,98,0.00,,,0.05,WUHU216WMR100,2013-04-12 08:32:00,
2013-04-12 04:37:00,59.9,59.3,28.53,South,177,3.6,5.4,98,0.00,,,0.05,WUHU216WMR100,2013-04-12 08:37:00,
2013-04-12 04:42:00,59.9,59.3,28.53,South,175,3.5,5.4,98,0.00,,,0.05,WUHU216WMR100,2013-04-12 08:42:00,
2013-04-12 04:47:00,59.9,59.3,28.53,SSE,157,2.9,5.4,98,0.00,,,0.05,WUHU216WMR100,2013-04-12 08:47:00,
2013-04-12 04:52:00,59.9,59.3,28.53,SSE,157,3.4,4.9,98,0.00,,,0.05,WUHU216WMR100,2013-04-12 08:52:00,
2013-04-12 04:57:00,60.1,59.5,28.53,South,176,3.8,5.6,98,0.00,,,0.05,WUHU216WMR100,2013-04-12 08:57:00,
2013-04-12 05:02:00,60.1,59.5,28.50,SSE,166,3.2,5.6,98,0.00,,,0.05,WUHU216WMR100,2013-04-12 09:02:00,
2013-04-12 05:07:00,60.1,59.5,28.50,SSE,157,3.8,4.9,98,0.00,,,0.05,WUHU216WMR100,2013-04-12 09:07:00,
2013-04-12 05:12:00,60.1,59.5,28.50,SSW,202,2.9,4.9,98,0.00,,,0.05,WUHU216WMR100,2013-04-12 09:12:00,
2013-04-12 05:17:00,60.1,59.5,28.50,SSE,157,2.1,3.8,98,0.00,,,0.05,WUHU216WMR100,2013-04-12 09:17:00,
2013-04-12 05:22:00,60.1,59.5,28.50,SSW,202,2.9,3.4,98,0.00,,,0.05,WUHU216WMR100,2013-04-12 09:22:00,
2013-04-12 05:27:00,60.1,59.5,28.50,SSE,157,2.2,3.4,98,0.04,,,0.08,WUHU216WMR100,2013-04-12 09:27:00,
2013-04-12 05:32:00,60.1,59.5,28.50,WSW,247,2.5,3.8,98,0.00,,,0.08,WUHU216WMR100,2013-04-12 09:32:00,
2013-04-12 05:37:00,59.9,59.3,28.50,SSE,157,3.4,4.3,98,0.00,,,0.08,WUHU216WMR100,2013-04-12 09:37:00,
2013-04-12 05:42:00,59.9,59.3,28.50,South,190,3.1,5.8,98,0.04,,,0.13,WUHU216WMR100,2013-04-12 09:42:00,
2013-04-12 05:47:00,59.9,59.3,28.50,SSW,196,2.9,5.8,98,0.04,,,0.13,WUHU216WMR100,2013-04-12 09:47:00,
2013-04-12 05:53:00,59.9,59.3,28.50,SSE,157,3.1,5.4,98,0.04,,,0.13,WUHU216WMR100,2013-04-12 09:53:00,
2013-04-12 05:58:00,59.9,59.3,28.50,South,180,2.8,4.9,98,0.04,,,0.13,WUHU216WMR100,2013-04-12 09:58:00,
2013-04-12 06:03:00,59.7,59.1,28.50,SSE,162,3.3,4.9,98,0.09,,,0.17,WUHU216WMR100,2013-04-12 10:03:00,
2013-04-12 06:08:00,59.9,59.3,28.50,SSW,202,4.5,6.5,98,0.09,,,0.17,WUHU216WMR100,2013-04-12 10:08:00,
2013-04-12 06:14:00,59.7,59.1,28.50,South,180,4.5,6.5,98,0.13,,,0.21,WUHU216WMR100,2013-04-12 10:14:00,
2013-04-12 06:19:00,59.9,59.3,28.50,SSW,202,5.4,7.6,98,0.13,,,0.21,WUHU216WMR100,2013-04-12 10:19:00,
2013-04-12 06:24:00,59.7,59.1,28.50,SSW,202,5.8,7.6,98,0.13,,,0.21,WUHU216WMR100,2013-04-12 10:24:00,
2013-04-12 06:29:00,59.7,59.1,28.50,South,180,3.8,7.6,98,0.13,,,0.21,WUHU216WMR100,2013-04-12 10:29:00,
2013-04-12 06:35:00,59.7,59.1,28.47,South,183,3.0,5.8,98,0.04,,,0.25,WUHU216WMR100,2013-04-12 10:35:00,
2013-04-12 06:40:00,59.9,59.3,28.47,SW,218,3.8,6.5,98,0.04,,,0.25,WUHU216WMR100,2013-04-12 10:40:00,
2013-04-12 06:45:00,59.7,59.1,28.47,South,180,1.7,6.7,98,0.04,,,0.25,WUHU216WMR100,2013-04-12 10:45:00,
2013-04-12 06:50:00,59.7,59.1,28.50,SSW,208,4.3,6.7,98,0.04,,,0.25,WUHU216WMR100,2013-04-12 10:50:00,
2013-04-12 06:56:00,59.7,59.1,28.50,SSE,157,3.4,6.5,98,0.08,,,0.29,WUHU216WMR100,2013-04-12 10:56:00,
2013-04-12 07:01:00,59.7,59.1,28.50,SSW,199,2.9,6.5,98,0.08,,,0.29,WUHU216WMR100,2013-04-12 11:01:00,
2013-04-12 07:06:00,59.7,59.1,28.50,SSW,202,3.1,5.8,98,0.13,,,0.34,WUHU216WMR100,2013-04-12 11:06:00,
2013-04-12 07:11:00,59.7,59.1,28.50,West,270,4.7,6.3,98,0.17,,,0.38,WUHU216WMR100,2013-04-12 11:11:00,
2013-04-12 07:16:00,59.5,58.9,28.50,SSW,202,2.9,6.3,98,0.25,,,0.46,WUHU216WMR100,2013-04-12 11:16:00,
2013-04-12 07:21:00,59.2,58.6,28.50,WSW,239,5.0,13.2,98,0.25,,,0.46,WUHU216WMR100,2013-04-12 11:21:00,
2013-04-12 07:27:00,59.2,58.6,28.50,South,180,4.5,13.2,98,0.25,,,0.46,WUHU216WMR100,2013-04-12 11:27:00,
2013-04-12 07:32:00,59.0,58.4,28.50,SW,219,2.8,7.6,98,0.25,,,0.46,WUHU216WMR100,2013-04-12 11:32:00,
2013-04-12 07:37:00,59.0,58.4,28.50,West,266,2.1,7.6,98,0.00,,,0.46,WUHU216WMR100,2013-04-12 11:37:00,
2013-04-12 07:42:00,59.0,58.4,28.50,WSW,248,2.3,5.6,98,0.00,,,0.46,WUHU216WMR100,2013-04-12 11:42:00,
2013-04-12 07:47:00,58.8,58.2,28.50,WSW,255,2.7,8.5,98,0.00,,,0.46,WUHU216WMR100,2013-04-12 11:47:00,
2013-04-12 07:52:00,58.8,58.2,28.50,WSW,245,1.8,8.5,98,0.00,,,0.46,WUHU216WMR100,2013-04-12 11:52:00,
2013-04-12 07:57:00,58.8,58.2,28.50,West,270,4.5,8.5,98,0.00,,,0.46,WUHU216WMR100,2013-04-12 11:57:00,
2013-04-12 08:02:00,58.8,58.2,28.50,WSW,247,3.8,12.8,98,0.00,,,0.46,WUHU216WMR100,2013-04-12 12:02:00,
2013-04-12 08:08:00,58.1,56.0,28.53,West,270,5.6,12.3,93,0.00,,,0.46,WUHU216WMR100,2013-04-12 12:08:00,
2013-04-12 08:13:00,57.7,54.2,28.53,West,274,5.2,12.3,88,0.00,,,0.46,WUHU216WMR100,2013-04-12 12:13:00,
2013-04-12 08:18:00,57.6,53.7,28.53,SE,135,7.4,10.5,87,0.00,,,0.46,WUHU216WMR100,2013-04-12 12:18:00,
2013-04-12 08:23:00,57.6,54.1,28.53,NNW,332,4.8,12.5,88,0.00,,,0.46,WUHU216WMR100,2013-04-12 12:23:00,
2013-04-12 08:28:00,57.4,53.9,28.53,West,270,4.5,12.5,88,0.00,,,0.46,WUHU216WMR100,2013-04-12 12:28:00,
2013-04-12 08:33:00,57.2,53.7,28.56,WNW,293,5.4,7.8,88,0.00,,,0.46,WUHU216WMR100,2013-04-12 12:33:00,
2013-04-12 08:38:00,57.0,53.8,28.56,North,0,4.5,7.8,89,0.00,,,0.46,WUHU216WMR100,2013-04-12 12:38:00,
2013-04-12 08:43:00,56.7,52.9,28.56,NW,309,4.4,10.1,87,0.00,,,0.46,WUHU216WMR100,2013-04-12 12:43:00,
2013-04-12 08:48:00,56.5,52.7,28.56,West,270,4.3,10.1,87,0.00,,,0.46,WUHU216WMR100,2013-04-12 12:48:00,
2013-04-12 08:53:00,56.3,52.2,28.56,West,280,5.4,8.1,86,0.00,,,0.46,WUHU216WMR100,2013-04-12 12:53:00,
2013-04-12 08:58:00,56.1,51.7,28.56,WNW,290,4.4,10.3,85,0.00,,,0.46,WUHU216WMR100,2013-04-12 12:58:00,
2013-04-12 09:03:00,55.9,51.8,28.59,SW,225,4.5,10.3,86,0.00,,,0.46,WUHU216WMR100,2013-04-12 13:03:00,
2013-04-12 09:08:00,55.8,51.7,28.59,WNW,292,6.0,11.4,86,0.00,,,0.46,WUHU216WMR100,2013-04-12 13:08:00,
2013-04-12 09:13:00,55.4,51.3,28.59,West,272,6.3,11.4,86,0.00,,,0.46,WUHU216WMR100,2013-04-12 13:13:00,
2013-04-12 09:18:00,54.9,50.5,28.59,WSW,247,6.7,10.5,85,0.00,,,0.46,WUHU216WMR100,2013-04-12 13:18:00,
2013-04-12 09:23:00,54.3,49.3,28.59,West,269,6.0,11.9,83,0.00,,,0.46,WUHU216WMR100,2013-04-12 13:23:00,
2013-04-12 09:28:00,53.6,48.6,28.59,WNW,292,7.8,11.9,83,0.00,,,0.46,WUHU216WMR100,2013-04-12 13:28:00,
2013-04-12 09:33:00,53.2,48.5,28.61,West,273,4.4,9.6,84,0.00,,,0.46,WUHU216WMR100,2013-04-12 13:33:00,
2013-04-12 09:38:00,52.3,47.3,28.61,WSW,247,6.0,9.2,83,0.00,,,0.46,WUHU216WMR100,2013-04-12 13:38:00,
2013-04-12 09:43:00,51.6,46.3,28.61,West,272,5.8,9.8,82,0.00,,,0.46,WUHU216WMR100,2013-04-12 13:43:00,
2013-04-12 09:48:00,51.4,46.1,28.61,WNW,284,4.1,9.8,82,0.00,,,0.46,WUHU216WMR100,2013-04-12 13:48:00,
2013-04-12 09:53:00,51.6,46.0,28.61,WSW,257,5.7,9.4,81,0.00,,,0.46,WUHU216WMR100,2013-04-12 13:53:00,
2013-04-12 09:58:00,51.3,45.4,28.61,WSW,247,6.3,8.1,80,0.00,,,0.46,WUHU216WMR100,2013-04-12 13:58:00,
2013-04-12 10:03:00,50.5,44.6,28.61,WNW,292,9.2,12.5,80,0.00,,,0.46,WUHU216WMR100,2013-04-12 14:03:00,
2013-04-12 10:08:00,50.4,44.5,28.61,NNW,337,6.5,14.8,80,0.00,,,0.46,WUHU216WMR100,2013-04-12 14:08:00,
2013-04-12 10:13:00,50.0,43.8,28.61,West,267,6.2,14.8,79,0.00,,,0.46,WUHU216WMR100,2013-04-12 14:13:00,
2013-04-12 10:18:00,49.6,43.7,28.64,WSW,247,6.5,10.5,80,0.00,,,0.46,WUHU216WMR100,2013-04-12 14:18:00,
2013-04-12 10:23:00,49.6,44.0,28.64,WSW,255,4.9,10.3,81,0.00,,,0.46,WUHU216WMR100,2013-04-12 14:23:00,
2013-04-12 10:28:00,50.0,44.7,28.64,WSW,247,5.4,10.5,82,0.00,,,0.46,WUHU216WMR100,2013-04-12 14:28:00,
2013-04-12 10:33:00,50.5,44.3,28.64,North,0,5.6,10.5,79,0.00,,,0.46,WUHU216WMR100,2013-04-12 14:33:00,
2013-04-12 10:38:00,51.1,43.5,28.64,West,270,6.3,10.1,75,0.00,,,0.46,WUHU216WMR100,2013-04-12 14:38:00,
2013-04-12 10:44:00,52.3,44.3,28.64,NNE,22,4.0,10.1,74,0.00,,,0.46,WUHU216WMR100,2013-04-12 14:44:00,
2013-04-12 10:49:00,52.3,42.9,28.64,WSW,247,6.7,10.1,70,0.00,,,0.46,WUHU216WMR100,2013-04-12 14:49:00,
2013-04-12 10:54:00,52.5,42.4,28.64,WSW,255,5.9,10.1,68,0.00,,,0.46,WUHU216WMR100,2013-04-12 14:54:00,
2013-04-12 10:59:00,53.2,43.4,28.64,WSW,247,4.3,10.1,69,0.00,,,0.46,WUHU216WMR100,2013-04-12 14:59:00,
2013-04-12 11:04:00,52.7,42.6,28.67,SW,225,4.0,10.1,68,0.00,,,0.46,WUHU216WMR100,2013-04-12 15:04:00,
2013-04-12 11:09:00,52.5,42.7,28.67,SW,236,3.8,8.1,69,0.00,,,0.46,WUHU216WMR100,2013-04-12 15:09:00,
2013-04-12 11:15:00,52.2,42.4,28.67,WNW,292,4.4,7.4,69,0.00,,,0.46,WUHU216WMR100,2013-04-12 15:15:00,
2013-04-12 11:20:00,52.0,42.6,28.67,WSW,248,3.3,8.7,70,0.00,,,0.46,WUHU216WMR100,2013-04-12 15:20:00,
2013-04-12 11:25:00,51.8,42.1,28.67,West,263,5.0,9.8,69,0.00,,,0.46,WUHU216WMR100,2013-04-12 15:25:00,
2013-04-12 11:30:00,52.2,43.2,28.67,WSW,247,3.1,9.8,71,0.00,,,0.46,WUHU216WMR100,2013-04-12 15:30:00,
2013-04-12 11:35:00,52.0,43.0,28.67,West,270,4.3,8.1,71,0.00,,,0.46,WUHU216WMR100,2013-04-12 15:35:00,
2013-04-12 11:40:00,52.0,43.4,28.67,West,267,3.8,8.1,72,0.00,,,0.46,WUHU216WMR100,2013-04-12 15:40:00,
2013-04-12 11:45:00,52.7,44.7,28.67,WSW,247,2.9,6.0,74,0.00,,,0.46,WUHU216WMR100,2013-04-12 15:45:00,
2013-04-12 11:50:00,53.4,45.1,28.67,WSW,247,3.6,5.4,73,0.00,,,0.46,WUHU216WMR100,2013-04-12 15:50:00,
2013-04-12 11:55:00,52.9,44.2,28.67,SSW,202,3.1,9.4,72,0.00,,,0.46,WUHU216WMR100,2013-04-12 15:55:00,
2013-04-12 12:00:00,52.3,44.7,28.67,WNW,292,5.8,9.4,75,0.00,,,0.46,WUHU216WMR100,2013-04-12 16:00:00,
2013-04-12 12:05:00,52.3,45.4,28.67,WSW,247,3.8,8.5,77,0.00,,,0.46,WUHU216WMR100,2013-04-12 16:05:00,
2013-04-12 12:10:00,52.0,45.1,28.67,SSW,202,4.7,9.8,77,0.00,,,0.46,WUHU216WMR100,2013-04-12 16:10:00,
2013-04-12 12:15:00,51.8,45.5,28.67,WSW,244,4.0,9.8,79,0.00,,,0.46,WUHU216WMR100,2013-04-12 16:15:00,
2013-04-12 12:20:00,52.7,46.7,28.67,WSW,247,3.6,7.4,80,0.00,,,0.46,WUHU216WMR100,2013-04-12 16:20:00,
2013-04-12 12:25:00,54.7,43.3,28.67,WSW,241,6.1,7.8,65,0.00,,,0.46,WUHU216WMR100,2013-04-12 16:25:00,
2013-04-12 12:30:00,56.7,43.5,28.67,WSW,247,4.9,9.8,61,0.00,,,0.46,WUHU216WMR100,2013-04-12 16:30:00,
2013-04-12 12:35:00,55.6,40.2,28.67,WSW,247,7.2,9.8,56,0.00,,,0.46,WUHU216WMR100,2013-04-12 16:35:00,
2013-04-12 12:40:00,54.7,41.6,28.67,WSW,252,4.3,8.9,61,0.00,,,0.46,WUHU216WMR100,2013-04-12 16:40:00,
2013-04-12 12:45:00,54.1,40.2,28.67,WSW,252,5.6,8.7,59,0.00,,,0.46,WUHU216WMR100,2013-04-12 16:45:00,
2013-04-12 12:50:00,53.6,41.0,28.67,WSW,247,5.3,10.1,62,0.00,,,0.46,WUHU216WMR100,2013-04-12 16:50:00,
2013-04-12 12:55:00,53.2,41.0,28.67,WSW,247,5.8,10.1,63,0.00,,,0.46,WUHU216WMR100,2013-04-12 16:55:00,
2013-04-12 13:00:00,53.2,41.9,28.67,WSW,257,4.4,8.5,65,0.00,,,0.46,WUHU216WMR100,2013-04-12 17:00:00,
2013-04-12 13:05:00,53.4,39.5,28.67,SW,236,6.3,10.1,59,0.00,,,0.46,WUHU216WMR100,2013-04-12 17:05:00,
2013-04-12 13:10:00,54.3,38.5,28.67,SW,228,5.7,11.2,55,0.00,,,0.46,WUHU216WMR100,2013-04-12 17:10:00,
2013-04-12 13:15:00,53.6,35.9,28.67,WNW,292,6.5,11.2,51,0.00,,,0.46,WUHU216WMR100,2013-04-12 17:15:00,
2013-04-12 13:20:00,53.4,36.7,28.70,WNW,292,7.6,10.7,53,0.00,,,0.46,WUHU216WMR100,2013-04-12 17:20:00,
2013-04-12 13:25:00,54.0,38.3,28.70,SW,232,4.4,10.7,55,0.00,,,0.46,WUHU216WMR100,2013-04-12 17:25:00,
2013-04-12 13:30:00,53.8,38.1,28.70,West,259,5.6,11.0,55,0.00,,,0.46,WUHU216WMR100,2013-04-12 17:30:00,
2013-04-12 13:35:00,53.6,38.3,28.70,WSW,249,5.7,11.0,56,0.00,,,0.46,WUHU216WMR100,2013-04-12 17:35:00,
2013-04-12 13:40:00,53.1,36.4,28.70,WSW,247,7.4,13.2,53,0.00,,,0.46,WUHU216WMR100,2013-04-12 17:40:00,
2013-04-12 13:46:00,53.2,37.0,28.70,West,260,6.2,13.2,54,0.00,,,0.46,WUHU216WMR100,2013-04-12 17:46:00,
2013-04-12 13:51:00,52.3,33.1,28.70,West,270,8.9,13.0,48,0.00,,,0.46,WUHU216WMR100,2013-04-12 17:51:00,
2013-04-12 13:56:00,52.2,34.1,28.70,West,264,5.2,13.0,50,0.00,,,0.46,WUHU216WMR100,2013-04-12 17:56:00,
2013-04-12 14:02:00,51.8,33.7,28.70,South,180,6.5,12.8,50,0.00,,,0.46,WUHU216WMR100,2013-04-12 18:02:00,
2013-04-12 14:07:00,51.6,34.0,28.73,WSW,247,7.4,12.8,51,0.00,,,0.46,WUHU216WMR100,2013-04-12 18:07:00,
2013-04-12 14:12:00,51.1,33.6,28.73,WSW,240,6.6,12.3,51,0.00,,,0.46,WUHU216WMR100,2013-04-12 18:12:00,
2013-04-12 14:17:00,51.3,33.8,28.73,WSW,247,5.4,12.3,51,0.00,,,0.46,WUHU216WMR100,2013-04-12 18:17:00,
2013-04-12 14:23:00,51.1,33.6,28.73,West,273,5.1,10.7,51,0.00,,,0.46,WUHU216WMR100,2013-04-12 18:23:00,
2013-04-12 14:29:00,50.4,33.4,28.73,NE,45,5.8,10.7,52,0.00,,,0.46,WUHU216WMR100,2013-04-12 18:29:00,
2013-04-12 14:31:00,50.4,33.9,28.73,West,270,4.9,10.5,53,0.00,,,0.46,WUHU216WMR100,2013-04-12 18:31:00,
2013-04-12 14:34:00,50.4,33.9,28.73,WNW,288,4.9,7.4,53,0.00,,,0.46,WUHU216WMR100,2013-04-12 18:34:00,
2013-04-12 14:35:00,50.2,33.2,28.73,WNW,292,7.2,10.1,52,0.00,,,0.46,WUHU216WMR100,2013-04-12 18:35:00,
2013-04-12 14:37:00,50.2,33.2,28.73,West,280,6.4,10.7,52,0.00,,,0.46,WUHU216WMR100,2013-04-12 18:37:00,
2013-04-12 14:38:00,50.2,33.7,28.73,West,264,5.0,10.7,53,0.00,,,0.46,WUHU216WMR100,2013-04-12 18:38:00,
2013-04-12 14:40:00,50.0,34.0,28.73,West,270,4.7,10.7,54,0.00,,,0.46,WUHU216WMR100,2013-04-12 18:40:00,
2013-04-12 14:43:00,50.0,34.5,28.73,West,262,5.5,10.7,55,0.00,,,0.46,WUHU216WMR100,2013-04-12 18:43:00,
2013-04-12 14:44:00,49.8,33.8,28.73,West,270,5.4,10.7,54,0.00,,,0.46,WUHU216WMR100,2013-04-12 18:44:00,
2013-04-12 14:46:00,49.6,33.7,28.73,SSW,202,6.0,10.7,54,0.00,,,0.46,WUHU216WMR100,2013-04-12 18:46:00,
2013-04-12 14:47:00,49.6,34.1,28.73,WSW,247,6.0,10.1,55,0.00,,,0.46,WUHU216WMR100,2013-04-12 18:47:00,
2013-04-12 14:49:00,49.8,34.3,28.73,WSW,248,4.7,10.1,55,0.00,,,0.46,WUHU216WMR100,2013-04-12 18:49:00,
2013-04-12 14:50:00,49.8,34.8,28.73,WSW,247,3.8,10.1,56,0.00,,,0.46,WUHU216WMR100,2013-04-12 18:50:00,
2013-04-12 14:52:00,49.6,34.1,28.73,WSW,247,6.3,10.1,55,0.00,,,0.46,WUHU216WMR100,2013-04-12 18:52:00,
2013-04-12 14:53:00,49.3,33.4,28.73,SSW,202,6.3,10.1,54,0.00,,,0.46,WUHU216WMR100,2013-04-12 18:53:00,
2013-04-12 14:55:00,49.5,34.0,28.73,West,267,5.4,10.1,55,0.00,,,0.46,WUHU216WMR100,2013-04-12 18:55:00,
2013-04-12 14:56:00,49.6,34.6,28.73,West,265,4.6,9.4,56,0.00,,,0.46,WUHU216WMR100,2013-04-12 18:56:00,
2013-04-12 14:59:00,49.6,34.6,28.73,WNW,292,4.3,9.4,56,0.00,,,0.46,WUHU216WMR100,2013-04-12 18:59:00,
2013-04-12 15:00:00,49.8,35.2,28.73,West,271,4.1,9.4,57,0.00,,,0.46,WUHU216WMR100,2013-04-12 19:00:00,
2013-04-12 15:02:00,49.8,35.7,28.73,West,272,3.3,7.6,58,0.00,,,0.46,WUHU216WMR100,2013-04-12 19:02:00,
2013-04-12 15:04:00,49.5,35.4,28.73,North,0,6.0,7.6,58,0.00,,,0.46,WUHU216WMR100,2013-04-12 19:04:00,
2013-04-12 15:05:00,49.3,34.8,28.73,SW,225,6.0,7.6,57,0.00,,,0.46,WUHU216WMR100,2013-04-12 19:05:00,
2013-04-12 15:06:00,49.1,35.0,28.73,WSW,250,4.8,7.6,58,0.00,,,0.46,WUHU216WMR100,2013-04-12 19:06:00,
2013-04-12 15:08:00,48.7,34.2,28.73,West,270,6.5,9.6,57,0.00,,,0.46,WUHU216WMR100,2013-04-12 19:08:00,
2013-04-12 15:09:00,48.6,34.6,28.73,WSW,247,6.5,11.0,58,0.00,,,0.46,WUHU216WMR100,2013-04-12 19:09:00,
2013-04-12 15:11:00,48.4,34.4,28.73,WNW,300,5.8,11.0,58,0.00,,,0.46,WUHU216WMR100,2013-04-12 19:11:00,
2013-04-12 15:13:00,48.2,34.2,28.73,WNW,292,7.6,12.5,58,0.00,,,0.46,WUHU216WMR100,2013-04-12 19:13:00,
2013-04-12 15:14:00,47.8,34.2,28.73,WSW,247,7.6,12.5,59,0.00,,,0.46,WUHU216WMR100,2013-04-12 19:14:00,
2013-04-12 15:16:00,47.8,34.2,28.73,West,272,6.8,12.5,59,0.00,,,0.46,WUHU216WMR100,2013-04-12 19:16:00,
2013-04-12 15:26:00,47.3,34.6,28.73,West,265,6.5,11.2,61,0.00,,,0.46,WUHU216WMR100,2013-04-12 19:26:00,
2013-04-12 15:27:00,47.3,34.6,28.73,West,270,7.6,11.2,61,0.00,,,0.46,WUHU216WMR100,2013-04-12 19:27:00,
2013-04-12 15:32:00,47.3,35.0,28.73,West,262,5.0,11.2,62,0.00,,,0.46,WUHU216WMR100,2013-04-12 19:32:00,
2013-04-12 15:37:00,46.8,34.6,28.73,WNW,301,7.3,10.3,62,0.00,,,0.46,WUHU216WMR100,2013-04-12 19:37:00,
2013-04-12 15:42:00,46.8,34.6,28.73,SSW,202,6.7,13.0,62,0.00,,,0.46,WUHU216WMR100,2013-04-12 19:42:00,
2013-04-12 15:47:00,46.6,34.0,28.73,WSW,247,6.3,13.0,61,0.00,,,0.46,WUHU216WMR100,2013-04-12 19:47:00,
2013-04-12 15:52:00,46.4,33.8,28.73,West,270,5.8,9.4,61,0.00,,,0.46,WUHU216WMR100,2013-04-12 19:52:00,
2013-04-12 15:57:00,46.6,34.4,28.73,West,275,5.8,10.7,62,0.00,,,0.46,WUHU216WMR100,2013-04-12 19:57:00,
2013-04-12 16:02:00,47.3,35.0,28.73,West,272,3.9,10.7,62,0.00,,,0.46,WUHU216WMR100,2013-04-12 20:02:00,
2013-04-12 16:07:00,49.1,34.6,28.76,West,270,5.8,8.9,57,0.00,,,0.46,WUHU216WMR100,2013-04-12 20:07:00,
2013-04-12 16:12:00,48.2,33.3,28.76,SSW,202,4.9,8.9,56,0.00,,,0.46,WUHU216WMR100,2013-04-12 20:12:00,
2013-04-12 16:17:00,47.5,33.5,28.76,WSW,244,3.8,8.7,58,0.00,,,0.46,WUHU216WMR100,2013-04-12 20:17:00,
2013-04-12 16:22:00,47.3,32.9,28.73,WNW,292,5.8,8.7,57,0.00,,,0.46,WUHU216WMR100,2013-04-12 20:22:00,
2013-04-12 16:27:00,47.3,32.9,28.73,NW,315,4.7,9.8,57,0.00,,,0.46,WUHU216WMR100,2013-04-12 20:27:00,
2013-04-12 16:32:00,47.3,32.4,28.73,West,270,7.4,9.8,56,0.00,,,0.46,WUHU216WMR100,2013-04-12 20:32:00,
2013-04-12 16:37:00,47.1,31.8,28.76,West,273,6.0,9.8,55,0.00,,,0.46,WUHU216WMR100,2013-04-12 20:37:00,
2013-04-12 16:42:00,47.1,31.8,28.76,West,280,6.6,10.5,55,0.00,,,0.46,WUHU216WMR100,2013-04-12 20:42:00,
2013-04-12 16:47:00,46.9,31.6,28.76,WNW,292,6.3,10.5,55,0.00,,,0.46,WUHU216WMR100,2013-04-12 20:47:00,
2013-04-12 16:52:00,46.4,31.1,28.76,WNW,292,5.8,10.5,55,0.00,,,0.46,WUHU216WMR100,2013-04-12 20:52:00,
2013-04-12 16:57:00,46.2,31.9,28.76,SSW,202,4.3,10.7,57,0.00,,,0.46,WUHU216WMR100,2013-04-12 20:57:00,
2013-04-12 17:02:00,46.0,32.1,28.76,SSW,209,4.0,10.7,58,0.00,,,0.46,WUHU216WMR100,2013-04-12 21:02:00,
2013-04-12 17:08:00,46.0,32.1,28.76,SSW,202,3.8,7.4,58,0.00,,,0.46,WUHU216WMR100,2013-04-12 21:08:00,
2013-04-12 17:13:00,45.9,31.6,28.76,West,270,5.4,8.5,57,0.00,,,0.46,WUHU216WMR100,2013-04-12 21:13:00,
2013-04-12 17:18:00,45.9,32.0,28.79,WNW,287,3.7,10.1,58,0.00,,,0.46,WUHU216WMR100,2013-04-12 21:18:00,
2013-04-12 17:23:00,45.3,30.6,28.79,West,281,5.7,10.1,56,0.00,,,0.46,WUHU216WMR100,2013-04-12 21:23:00,
2013-04-12 17:28:00,45.1,29.9,28.79,NNW,337,6.3,9.2,55,0.00,,,0.46,WUHU216WMR100,2013-04-12 21:28:00,
2013-04-12 17:33:00,45.3,30.6,28.79,West,259,3.5,8.5,56,0.00,,,0.46,WUHU216WMR100,2013-04-12 21:33:00,
2013-04-12 17:39:00,45.1,29.9,28.79,West,263,4.8,8.5,55,0.00,,,0.46,WUHU216WMR100,2013-04-12 21:39:00,
2013-04-12 17:44:00,45.3,30.6,28.79,WNW,283,2.9,9.4,56,0.00,,,0.46,WUHU216WMR100,2013-04-12 21:44:00,
2013-04-12 17:51:00,45.3,31.0,28.79,NNW,340,3.7,9.4,57,0.00,,,0.46,WUHU216WMR100,2013-04-12 21:51:00,
2013-04-12 17:56:00,45.5,30.7,28.79,WNW,297,3.8,9.2,56,0.00,,,0.46,WUHU216WMR100,2013-04-12 21:56:00,
2013-04-12 18:01:00,45.5,30.7,28.79,West,276,3.6,7.8,56,0.00,,,0.46,WUHU216WMR100,2013-04-12 22:01:00,
2013-04-12 18:06:00,45.7,31.4,28.79,West,264,2.1,5.8,57,0.00,,,0.46,WUHU216WMR100,2013-04-12 22:06:00,
2013-04-12 18:11:00,45.5,30.7,28.79,West,270,3.4,4.3,56,0.00,,,0.46,WUHU216WMR100,2013-04-12 22:11:00,
2013-04-12 18:16:00,45.5,30.7,28.79,North,0,3.1,5.4,56,0.00,,,0.46,WUHU216WMR100,2013-04-12 22:16:00,
2013-04-12 18:22:00,45.3,30.1,28.82,WNW,292,3.6,5.4,55,0.00,,,0.46,WUHU216WMR100,2013-04-12 22:22:00,
2013-04-12 18:27:00,45.1,29.9,28.82,NW,309,3.5,6.0,55,0.00,,,0.46,WUHU216WMR100,2013-04-12 22:27:00,
2013-04-12 18:32:00,45.1,30.4,28.82,NNW,333,3.0,6.5,56,0.00,,,0.46,WUHU216WMR100,2013-04-12 22:32:00,
2013-04-12 18:37:00,45.1,30.8,28.82,NNW,337,1.3,6.5,57,0.00,,,0.46,WUHU216WMR100,2013-04-12 22:37:00,
2013-04-12 18:42:00,45.1,30.8,28.82,WNW,292,3.1,4.0,57,0.00,,,0.46,WUHU216WMR100,2013-04-12 22:42:00,
2013-04-12 18:47:00,45.1,30.4,28.82,WNW,292,3.6,6.0,56,0.00,,,0.46,WUHU216WMR100,2013-04-12 22:47:00,
2013-04-12 18:52:00,45.1,30.8,28.82,North,354,1.8,6.0,57,0.00,,,0.46,WUHU216WMR100,2013-04-12 22:52:00,
2013-04-12 18:57:00,45.0,30.7,28.82,WNW,291,3.1,4.3,57,0.00,,,0.46,WUHU216WMR100,2013-04-12 22:57:00,
2013-04-12 19:02:00,45.0,30.7,28.82,WNW,285,2.6,4.3,57,0.00,,,0.46,WUHU216WMR100,2013-04-12 23:02:00,
2013-04-12 19:07:00,45.0,31.2,28.82,WNW,292,3.1,4.3,58,0.00,,,0.46,WUHU216WMR100,2013-04-12 23:07:00,
2013-04-12 19:12:00,45.0,31.2,28.82,WNW,284,3.1,4.9,58,0.00,,,0.46,WUHU216WMR100,2013-04-12 23:12:00,
2013-04-12 19:17:00,45.0,31.2,28.82,NW,309,2.4,4.9,58,0.00,,,0.46,WUHU216WMR100,2013-04-12 23:17:00,
2013-04-12 19:22:00,45.0,30.7,28.82,WSW,247,3.1,4.5,57,0.00,,,0.46,WUHU216WMR100,2013-04-12 23:22:00,
2013-04-12 19:27:00,45.0,31.2,28.82,WSW,247,3.4,4.3,58,0.00,,,0.46,WUHU216WMR100,2013-04-12 23:27:00,
2013-04-12 19:32:00,45.0,31.2,28.82,West,270,2.2,4.3,58,0.00,,,0.46,WUHU216WMR100,2013-04-12 23:32:00,
2013-04-12 19:37:00,45.0,31.2,28.82,WSW,247,2.7,3.4,58,0.00,,,0.46,WUHU216WMR100,2013-04-12 23:37:00,
2013-04-12 19:42:00,44.8,31.0,28.82,South,181,3.4,6.5,58,0.00,,,0.46,WUHU216WMR100,2013-04-12 23:42:00,
2013-04-12 19:47:00,44.8,31.0,28.82,NNW,337,3.1,6.5,58,0.00,,,0.46,WUHU216WMR100,2013-04-12 23:47:00,
2013-04-12 19:52:00,44.6,31.2,28.82,SSW,202,2.7,4.9,59,0.00,,,0.46,WUHU216WMR100,2013-04-12 23:52:00,
2013-04-12 19:57:00,44.6,31.2,28.82,West,270,2.5,4.3,59,0.00,,,0.46,WUHU216WMR100,2013-04-12 23:57:00,
2013-04-12 20:03:00,44.6,31.2,28.85,NNW,337,2.2,4.3,59,0.00,,,0.46,WUHU216WMR100,2013-04-13 00:03:00,
2013-04-12 20:08:00,44.4,31.5,28.85,NW,314,2.8,5.4,60,0.00,,,0.46,WUHU216WMR100,2013-04-13 00:08:00,
2013-04-12 20:09:00,44.4,31.5,28.85,WSW,247,1.8,5.4,60,0.00,,,0.46,WUHU216WMR100,2013-04-13 00:09:00,
2013-04-12 20:10:00,44.4,31.5,28.85,WSW,247,1.6,5.4,60,0.00,,,0.46,WUHU216WMR100,2013-04-13 00:10:00,
2013-04-12 20:11:00,44.4,31.5,28.85,WSW,247,2.2,5.4,60,0.00,,,0.46,WUHU216WMR100,2013-04-13 00:11:00,
2013-04-12 20:12:00,44.4,31.9,28.85,West,263,2.1,5.4,61,0.00,,,0.46,WUHU216WMR100,2013-04-13 00:12:00,
2013-04-12 20:13:00,44.4,31.9,28.85,West,270,2.7,5.4,61,0.00,,,0.46,WUHU216WMR100,2013-04-13 00:13:00,
2013-04-12 20:14:00,44.4,31.9,28.85,WNW,292,2.7,5.4,61,0.00,,,0.46,WUHU216WMR100,2013-04-13 00:14:00,
2013-04-12 20:15:00,44.4,31.9,28.85,WNW,282,2.3,5.4,61,0.00,,,0.46,WUHU216WMR100,2013-04-13 00:15:00,
2013-04-12 20:16:00,44.4,31.9,28.85,WNW,284,1.2,3.6,61,0.00,,,0.46,WUHU216WMR100,2013-04-13 00:16:00,
2013-04-12 20:17:00,44.4,31.9,28.85,WNW,292,1.1,3.6,61,0.00,,,0.46,WUHU216WMR100,2013-04-13 00:17:00,
2013-04-12 20:18:00,44.4,31.9,28.82,West,270,1.6,3.6,61,0.00,,,0.46,WUHU216WMR100,2013-04-13 00:18:00,
2013-04-12 20:19:00,44.4,31.9,28.82,NNW,337,2.2,3.6,61,0.00,,,0.46,WUHU216WMR100,2013-04-13 00:19:00,
2013-04-12 20:20:00,44.4,31.9,28.82,NNW,339,1.7,3.6,61,0.00,,,0.46,WUHU216WMR100,2013-04-13 00:20:00,
2013-04-12 20:21:00,44.4,31.9,28.82,WNW,292,2.5,4.3,61,0.00,,,0.46,WUHU216WMR100,2013-04-13 00:21:00,
2013-04-12 20:22:00,44.4,31.9,28.82,West,270,2.9,4.3,61,0.00,,,0.46,WUHU216WMR100,2013-04-13 00:22:00,
2013-04-12 20:23:00,44.2,31.7,28.82,WSW,247,3.1,4.3,61,0.00,,,0.46,WUHU216WMR100,2013-04-13 00:23:00,
2013-04-12 20:24:00,44.2,31.7,28.82,WNW,286,2.8,4.3,61,0.00,,,0.46,WUHU216WMR100,2013-04-13 00:24:00,
2013-04-12 20:25:00,44.2,31.7,28.82,NNW,337,2.5,4.3,61,0.00,,,0.46,WUHU216WMR100,2013-04-13 00:25:00,
2013-04-12 20:26:00,44.2,31.7,28.82,NW,316,2.4,4.3,61,0.00,,,0.46,WUHU216WMR100,2013-04-13 00:26:00,
2013-04-12 20:27:00,44.2,31.7,28.82,NW,315,3.4,4.9,61,0.00,,,0.46,WUHU216WMR100,2013-04-13 00:27:00,
2013-04-12 20:28:00,44.2,31.3,28.82,WNW,292,3.4,5.8,60,0.00,,,0.46,WUHU216WMR100,2013-04-13 00:28:00,
2013-04-12 20:29:00,44.2,31.3,28.82,WNW,292,4.0,5.8,60,0.00,,,0.46,WUHU216WMR100,2013-04-13 00:29:00,
2013-04-12 20:30:00,44.2,31.3,28.82,WNW,283,3.4,5.8,60,0.00,,,0.46,WUHU216WMR100,2013-04-13 00:30:00,
2013-04-12 20:31:00,44.2,31.7,28.82,SSE,157,3.1,5.8,61,0.00,,,0.46,WUHU216WMR100,2013-04-13 00:31:00,
2013-04-12 20:32:00,44.2,31.7,28.82,WSW,246,2.4,5.8,61,0.00,,,0.46,WUHU216WMR100,2013-04-13 00:32:00,
2013-04-12 20:33:00,44.2,31.7,28.82,ENE,67,3.1,5.8,61,0.00,,,0.46,WUHU216WMR100,2013-04-13 00:33:00,
2013-04-12 20:34:00,44.2,31.3,28.82,SSW,202,3.4,5.8,60,0.00,,,0.46,WUHU216WMR100,2013-04-13 00:34:00,
2013-04-12 20:35:00,44.2,31.7,28.82,NNW,332,2.8,5.8,61,0.00,,,0.46,WUHU216WMR100,2013-04-13 00:35:00,
2013-04-12 20:36:00,44.2,31.7,28.82,North,0,2.5,5.8,61,0.00,,,0.46,WUHU216WMR100,2013-04-13 00:36:00,
2013-04-12 20:37:00,44.2,31.7,28.82,West,270,2.9,5.8,61,0.00,,,0.46,WUHU216WMR100,2013-04-13 00:37:00,
2013-04-12 20:38:00,44.2,31.7,28.82,WNW,292,3.1,4.9,61,0.00,,,0.46,WUHU216WMR100,2013-04-13 00:38:00,
2013-04-12 20:39:00,44.2,31.7,28.82,West,262,2.8,4.9,61,0.00,,,0.46,WUHU216WMR100,2013-04-13 00:39:00,
2013-04-12 20:40:00,44.2,31.7,28.82,WNW,303,2.9,4.9,61,0.00,,,0.46,WUHU216WMR100,2013-04-13 00:40:00,
2013-04-12 20:41:00,44.2,31.7,28.82,NW,318,2.8,4.9,61,0.00,,,0.46,WUHU216WMR100,2013-04-13 00:41:00,
2013-04-12 20:42:00,44.2,31.7,28.82,WNW,290,2.6,4.7,61,0.00,,,0.46,WUHU216WMR100,2013-04-13 00:42:00,
2013-04-12 20:43:00,44.2,31.7,28.82,NW,315,2.7,4.7,61,0.00,,,0.46,WUHU216WMR100,2013-04-13 00:43:00,
2013-04-12 20:44:00,44.2,31.7,28.82,NNW,335,2.3,4.7,61,0.00,,,0.46,WUHU216WMR100,2013-04-13 00:44:00,
2013-04-12 20:45:00,44.2,31.7,28.82,NW,315,2.0,4.7,61,0.00,,,0.46,WUHU216WMR100,2013-04-13 00:45:00,
2013-04-12 20:46:00,44.2,31.7,28.82,WNW,292,2.0,4.7,61,0.00,,,0.46,WUHU216WMR100,2013-04-13 00:46:00,
2013-04-12 20:47:00,44.2,31.7,28.85,WNW,292,2.5,4.3,61,0.00,,,0.46,WUHU216WMR100,2013-04-13 00:47:00,
2013-04-12 20:48:00,44.2,31.7,28.85,South,180,2.5,4.3,61,0.00,,,0.46,WUHU216WMR100,2013-04-13 00:48:00,
2013-04-12 20:49:00,44.2,31.7,28.85,WNW,292,2.9,4.3,61,0.00,,,0.46,WUHU216WMR100,2013-04-13 00:49:00,
2013-04-12 20:50:00,44.2,32.1,28.85,West,263,2.5,4.0,62,0.00,,,0.46,WUHU216WMR100,2013-04-13 00:50:00,
2013-04-12 20:51:00,44.2,32.1,28.85,WNW,286,1.9,4.0,62,0.00,,,0.46,WUHU216WMR100,2013-04-13 00:51:00,
2013-04-12 20:52:00,44.1,32.0,28.85,WSW,247,2.0,4.0,62,0.00,,,0.46,WUHU216WMR100,2013-04-13 00:52:00,
2013-04-12 20:53:00,44.1,32.0,28.85,WNW,292,2.0,4.0,62,0.00,,,0.46,WUHU216WMR100,2013-04-13 00:53:00,
2013-04-12 20:54:00,44.1,32.0,28.85,NNW,337,2.9,4.0,62,0.00,,,0.46,WUHU216WMR100,2013-04-13 00:54:00,
2013-04-12 20:55:00,44.1,32.0,28.85,WNW,288,2.7,4.0,62,0.00,,,0.46,WUHU216WMR100,2013-04-13 00:55:00,
2013-04-12 20:56:00,44.1,32.0,28.85,North,0,3.6,7.6,62,0.00,,,0.46,WUHU216WMR100,2013-04-13 00:56:00,
2013-04-12 20:57:00,44.1,32.0,28.85,WNW,290,3.8,7.6,62,0.00,,,0.46,WUHU216WMR100,2013-04-13 00:57:00,
2013-04-12 20:58:00,44.1,32.0,28.85,NW,312,3.4,7.6,62,0.00,,,0.46,WUHU216WMR100,2013-04-13 00:58:00,
2013-04-12 20:59:00,44.1,32.0,28.85,NNW,338,2.2,7.6,62,0.00,,,0.46,WUHU216WMR100,2013-04-13 00:59:00,
2013-04-12 21:00:00,44.1,32.0,28.85,NNW,337,2.0,7.6,62,0.00,,,0.46,WUHU216WMR100,2013-04-13 01:00:00,
2013-04-12 21:01:00,44.1,32.0,28.85,North,0,2.0,7.6,62,0.00,,,0.46,WUHU216WMR100,2013-04-13 01:01:00,
2013-04-12 21:02:00,44.1,32.4,28.85,NNW,343,1.8,7.6,63,0.00,,,0.46,WUHU216WMR100,2013-04-13 01:02:00,
2013-04-12 21:03:00,44.1,32.4,28.85,NNW,337,1.5,7.6,63,0.00,,,0.46,WUHU216WMR100,2013-04-13 01:03:00,
2013-04-12 21:04:00,43.9,32.2,28.85,North,0,3.4,7.6,63,0.00,,,0.46,WUHU216WMR100,2013-04-13 01:04:00,
2013-04-12 21:05:00,43.9,32.2,28.85,North,351,2.9,7.6,63,0.00,,,0.46,WUHU216WMR100,2013-04-13 01:05:00,
2013-04-12 21:06:00,43.9,32.2,28.85,NNW,339,2.2,4.5,63,0.00,,,0.46,WUHU216WMR100,2013-04-13 01:06:00,
2013-04-12 21:07:00,43.9,32.2,28.85,NW,307,1.9,4.5,63,0.00,,,0.46,WUHU216WMR100,2013-04-13 01:07:00,
2013-04-12 21:08:00,43.9,32.6,28.85,WNW,292,2.9,4.5,64,0.00,,,0.46,WUHU216WMR100,2013-04-13 01:08:00,
2013-04-12 21:09:00,43.9,32.6,28.85,NW,325,1.6,4.5,64,0.00,,,0.46,WUHU216WMR100,2013-04-13 01:09:00,
2013-04-12 21:10:00,43.9,32.6,28.85,NNW,337,1.1,4.5,64,0.00,,,0.46,WUHU216WMR100,2013-04-13 01:10:00,
2013-04-12 21:11:00,43.9,32.6,28.85,NNW,337,1.1,4.5,64,0.00,,,0.46,WUHU216WMR100,2013-04-13 01:11:00,
2013-04-12 21:12:00,43.9,32.6,28.85,NNW,335,1.0,4.5,64,0.00,,,0.46,WUHU216WMR100,2013-04-13 01:12:00,
2013-04-12 21:13:00,43.9,32.6,28.85,NNW,337,2.7,4.0,64,0.00,,,0.46,WUHU216WMR100,2013-04-13 01:13:00,
2013-04-12 21:14:00,43.9,32.6,28.85,NNW,334,2.1,4.0,64,0.00,,,0.46,WUHU216WMR100,2013-04-13 01:14:00,
2013-04-12 21:15:00,43.7,32.4,28.85,NNW,337,3.1,4.7,64,0.00,,,0.46,WUHU216WMR100,2013-04-13 01:15:00,
2013-04-12 21:16:00,43.7,32.4,28.85,NNW,337,2.9,4.7,64,0.00,,,0.46,WUHU216WMR100,2013-04-13 01:16:00,
2013-04-12 21:17:00,43.7,32.4,28.85,NW,312,2.8,4.7,64,0.00,,,0.46,WUHU216WMR100,2013-04-13 01:17:00,
2013-04-12 21:18:00,43.7,32.4,28.85,NNW,337,2.9,4.7,64,0.00,,,0.46,WUHU216WMR100,2013-04-13 01:18:00,
2013-04-12 21:19:00,43.7,32.8,28.85,NW,326,2.8,4.7,65,0.00,,,0.46,WUHU216WMR100,2013-04-13 01:19:00,
2013-04-12 21:20:00,43.7,32.8,28.85,NW,319,2.6,5.4,65,0.00,,,0.46,WUHU216WMR100,2013-04-13 01:20:00,
2013-04-12 21:21:00,43.7,32.8,28.85,NNW,337,3.1,5.4,65,0.00,,,0.46,WUHU216WMR100,2013-04-13 01:21:00,
2013-04-12 21:22:00,43.7,32.8,28.85,WNW,292,3.1,5.4,65,0.00,,,0.46,WUHU216WMR100,2013-04-13 01:22:00,
2013-04-12 21:23:00,43.7,32.8,28.85,WNW,292,2.8,5.4,65,0.00,,,0.46,WUHU216WMR100,2013-04-13 01:23:00,
2013-04-12 21:24:00,43.7,32.8,28.85,WNW,288,2.4,5.4,65,0.00,,,0.46,WUHU216WMR100,2013-04-13 01:24:00,
2013-04-12 21:25:00,43.7,32.8,28.85,West,277,2.1,5.4,65,0.00,,,0.46,WUHU216WMR100,2013-04-13 01:25:00,
2013-04-12 21:26:00,43.7,32.8,28.85,WNW,301,1.8,5.4,65,0.00,,,0.46,WUHU216WMR100,2013-04-13 01:26:00,
2013-04-12 21:27:00,43.7,33.2,28.85,WNW,292,3.4,5.8,66,0.00,,,0.46,WUHU216WMR100,2013-04-13 01:27:00,
2013-04-12 21:28:00,43.7,33.2,28.85,WNW,292,3.6,5.8,66,0.00,,,0.46,WUHU216WMR100,2013-04-13 01:28:00,
2013-04-12 21:29:00,43.7,33.2,28.85,WNW,284,3.2,5.8,66,0.00,,,0.46,WUHU216WMR100,2013-04-13 01:29:00,
2013-04-12 21:30:00,43.7,33.2,28.85,NW,311,2.5,5.8,66,0.00,,,0.46,WUHU216WMR100,2013-04-13 01:30:00,
2013-04-12 21:31:00,43.7,33.2,28.85,NNW,337,1.8,5.8,66,0.00,,,0.46,WUHU216WMR100,2013-04-13 01:31:00,
2013-04-12 21:32:00,43.7,33.2,28.85,NNW,337,1.1,5.8,66,0.00,,,0.46,WUHU216WMR100,2013-04-13 01:32:00,
2013-04-12 21:33:00,43.7,33.2,28.85,NNW,337,1.3,5.8,66,0.00,,,0.46,WUHU216WMR100,2013-04-13 01:33:00,
2013-04-12 21:34:00,43.5,33.0,28.85,West,270,2.5,5.8,66,0.00,,,0.46,WUHU216WMR100,2013-04-13 01:34:00,
2013-04-12 21:35:00,43.5,33.0,28.85,West,270,2.2,5.8,66,0.00,,,0.46,WUHU216WMR100,2013-04-13 01:35:00,
2013-04-12 21:36:00,43.5,33.0,28.85,NNW,337,2.9,5.8,66,0.00,,,0.46,WUHU216WMR100,2013-04-13 01:36:00,
2013-04-12 21:37:00,43.5,33.0,28.85,NW,325,2.5,4.3,66,0.00,,,0.46,WUHU216WMR100,2013-04-13 01:37:00,
2013-04-12 21:38:00,43.5,33.0,28.85,WNW,292,2.7,4.3,66,0.00,,,0.46,WUHU216WMR100,2013-04-13 01:38:00,
2013-04-12 21:39:00,43.5,33.0,28.85,NW,315,2.7,4.3,66,0.00,,,0.46,WUHU216WMR100,2013-04-13 01:39:00,
2013-04-12 21:40:00,43.5,33.0,28.85,West,270,3.6,4.3,66,0.00,,,0.46,WUHU216WMR100,2013-04-13 01:40:00,
2013-04-12 21:41:00,43.5,33.0,28.85,NW,304,3.2,4.3,66,0.00,,,0.46,WUHU216WMR100,2013-04-13 01:41:00,
2013-04-12 21:42:00,43.5,33.0,28.85,NW,312,2.7,4.3,66,0.00,,,0.46,WUHU216WMR100,2013-04-13 01:42:00,
2013-04-12 21:43:00,43.5,33.4,28.85,NNW,337,2.5,4.3,67,0.00,,,0.46,WUHU216WMR100,2013-04-13 01:43:00,
2013-04-12 21:44:00,43.5,33.4,28.85,WNW,292,2.9,4.0,67,0.00,,,0.46,WUHU216WMR100,2013-04-13 01:44:00,
2013-04-12 21:45:00,43.5,33.4,28.85,NW,307,2.6,4.0,67,0.00,,,0.46,WUHU216WMR100,2013-04-13 01:45:00,
2013-04-12 21:46:00,43.5,33.4,28.85,WNW,297,2.1,4.0,67,0.00,,,0.46,WUHU216WMR100,2013-04-13 01:46:00,
2013-04-12 21:47:00,43.5,33.4,28.85,WNW,292,1.3,4.0,67,0.00,,,0.46,WUHU216WMR100,2013-04-13 01:47:00,
2013-04-12 21:48:00,43.5,33.4,28.85,WNW,292,0.6,4.0,67,0.00,,,0.46,WUHU216WMR100,2013-04-13 01:48:00,
2013-04-12 21:49:00,43.5,33.4,28.85,WNW,292,1.3,4.0,67,0.00,,,0.46,WUHU216WMR100,2013-04-13 01:49:00,
2013-04-12 21:50:00,43.5,33.4,28.85,NNW,337,2.0,4.0,67,0.00,,,0.46,WUHU216WMR100,2013-04-13 01:50:00,
2013-04-12 21:51:00,43.5,33.4,28.85,NNW,336,1.8,3.8,67,0.00,,,0.46,WUHU216WMR100,2013-04-13 01:51:00,
2013-04-12 21:52:00,43.5,33.4,28.85,North,357,1.2,3.8,67,0.00,,,0.46,WUHU216WMR100,2013-04-13 01:52:00,
2013-04-12 21:53:00,43.5,33.4,28.85,North,0,0.9,3.4,67,0.00,,,0.46,WUHU216WMR100,2013-04-13 01:53:00,
2013-04-12 21:54:00,43.5,33.4,28.85,North,0,0.6,3.4,67,0.00,,,0.46,WUHU216WMR100,2013-04-13 01:54:00,
2013-04-12 21:55:00,43.5,33.4,28.85,NNW,337,0.9,2.9,67,0.00,,,0.46,WUHU216WMR100,2013-04-13 01:55:00,
2013-04-12 21:56:00,43.5,33.4,28.85,NNW,337,2.5,2.9,67,0.00,,,0.46,WUHU216WMR100,2013-04-13 01:56:00,
2013-04-12 21:57:00,43.5,33.4,28.85,NNW,328,1.9,2.9,67,0.00,,,0.46,WUHU216WMR100,2013-04-13 01:57:00,
2013-04-12 21:58:00,43.3,33.2,28.85,North,0,2.0,3.1,67,0.00,,,0.46,WUHU216WMR100,2013-04-13 01:58:00,
2013-04-12 21:59:00,43.3,33.5,28.85,NNW,337,2.7,3.6,68,0.00,,,0.46,WUHU216WMR100,2013-04-13 01:59:00,
2013-04-12 22:00:00,43.3,33.5,28.85,North,0,2.7,3.6,68,0.00,,,0.46,WUHU216WMR100,2013-04-13 02:00:00,
2013-04-12 22:01:00,43.3,33.5,28.85,NNW,333,2.5,3.6,68,0.00,,,0.46,WUHU216WMR100,2013-04-13 02:01:00,
2013-04-12 22:02:00,43.3,33.5,28.85,NNW,328,1.9,3.6,68,0.00,,,0.46,WUHU216WMR100,2013-04-13 02:02:00,
2013-04-12 22:03:00,43.3,33.5,28.85,NNW,337,0.9,3.6,68,0.00,,,0.46,WUHU216WMR100,2013-04-13 02:03:00,
2013-04-12 22:04:00,43.3,33.5,28.85,NNW,337,1.3,3.6,68,0.00,,,0.46,WUHU216WMR100,2013-04-13 02:04:00,
2013-04-12 22:05:00,43.3,33.5,28.85,WNW,292,2.0,3.6,68,0.00,,,0.46,WUHU216WMR100,2013-04-13 02:05:00,
2013-04-12 22:06:00,43.3,33.5,28.85,NW,321,1.9,3.6,68,0.00,,,0.46,WUHU216WMR100,2013-04-13 02:06:00,
2013-04-12 22:07:00,43.3,33.5,28.85,NNW,340,1.5,3.6,68,0.00,,,0.46,WUHU216WMR100,2013-04-13 02:07:00,
2013-04-12 22:08:00,43.3,33.5,28.85,North,352,1.0,3.6,68,0.00,,,0.46,WUHU216WMR100,2013-04-13 02:08:00,
2013-04-12 22:09:00,43.3,33.5,28.85,North,0,1.3,3.4,68,0.00,,,0.46,WUHU216WMR100,2013-04-13 02:09:00,
2013-04-12 22:10:00,43.3,33.5,28.85,North,0,0.7,3.4,68,0.00,,,0.46,WUHU216WMR100,2013-04-13 02:10:00,
2013-04-12 22:11:00,43.3,33.5,28.85,North,0,0.9,2.9,68,0.00,,,0.46,WUHU216WMR100,2013-04-13 02:11:00,
2013-04-12 22:12:00,43.3,33.5,28.85,North,0,0.9,2.9,68,0.00,,,0.46,WUHU216WMR100,2013-04-13 02:12:00,
2013-04-12 22:13:00,43.2,33.4,28.85,North,0,0.9,2.9,68,0.00,,,0.46,WUHU216WMR100,2013-04-13 02:13:00,
2013-04-12 22:14:00,43.3,33.5,28.85,North,0,0.5,2.9,68,0.00,,,0.46,WUHU216WMR100,2013-04-13 02:14:00,
2013-04-12 22:19:00,43.2,33.8,28.85,WNW,292,3.1,4.0,69,0.00,,,0.46,WUHU216WMR100,2013-04-13 02:19:00,
2013-04-12 22:24:00,43.2,33.8,28.85,WNW,292,3.1,4.0,69,0.00,,,0.46,WUHU216WMR100,2013-04-13 02:24:00,